DO9LL-1 Weather Reports


Display with metric or nautical units.
time (UTC)temp
F
wind
direction
speed
MPH
gust
MPH
rain 1hr
in
rain 24hr
in
rain mn
in
humidity
%
barometer
mb
20260505222220 49 4 1.0 3.0 0.01 0.10 0.00 95 1007.2
20260505221217 49 352 1.0 3.0 0.01 0.10 0.00 95 1007.2
20260505220234 50 357 1.0 2.0 0.01 0.10 0.10 94 1007.3
20260505215230 50 346 1.0 2.0 0.01 0.10 0.10 94 1007.3
20260505214227 50 352 1.0 3.0 0.00 0.09 0.09 93 1007.5
20260505213224 50 7 0.0 2.0 0.00 0.09 0.09 92 1007.5
20260505212220 51 312 1.0 3.0 0.00 0.09 0.09 91 1007.7
20260505211217 51 323 1.0 3.0 0.00 0.09 0.09 91 1007.7
20260505210234 51 352 1.0 3.0 0.00 0.09 0.09 90 1007.7
20260505205230 51 353 0.0 2.0 0.00 0.09 0.09 90 1007.7
20260505204227 51 332 1.0 3.0 0.00 0.09 0.09 90 1007.7
20260505203224 51 328 1.0 3.0 0.00 0.09 0.09 91 1007.7
20260505202221 51 337 0.0 1.0 0.00 0.09 0.09 91 1007.8
20260505201218 51 359 0.0 1.0 0.00 0.09 0.09 91 1007.7
20260505200235 51 314 0.0 2.0 0.00 0.09 0.09 91 1007.7
20260505195232 51 332 0.0 1.0 0.00 0.09 0.09 91 1007.6
20260505194228 51 306 0.0 2.0 0.00 0.09 0.09 90 1007.7
20260505193225 51 310 0.0 2.0 0.00 0.10 0.09 90 1007.6
20260505192222 51 344 0.0 1.0 0.00 0.10 0.09 90 1007.6
20260505191219 51 323 0.0 2.0 0.00 0.10 0.09 90 1007.6
20260505190215 51 351 0.0 2.0 0.00 0.11 0.09 90 1007.6
20260505185232 51 325 1.0 2.0 0.00 0.11 0.09 90 1007.5
20260505184229 51 308 0.0 1.0 0.00 0.12 0.09 91 1007.6
20260505183230 51 312 0.0 2.0 0.00 0.18 0.09 92 1007.6
20260505182223 51 317 0.0 2.0 0.00 0.35 0.09 92 1007.6
20260505181219 51 342 1.0 4.0 0.00 0.48 0.09 92 1007.7
20260505180216 51 342 1.0 4.0 0.00 0.61 0.09 92 1007.7
20260505175232 51 325 1.0 3.0 0.00 0.61 0.09 92 1007.8
20260505174229 51 343 1.0 3.0 0.00 0.61 0.09 93 1007.6
20260505173226 51 338 0.0 2.0 0.00 0.61 0.09 93 1007.7
20260505172223 51 315 1.0 3.0 0.00 0.61 0.09 93 1007.8
20260505171220 50 297 1.0 3.0 0.00 0.61 0.09 93 1007.7
20260505170216 50 346 1.0 3.0 0.00 0.61 0.09 93 1007.8
20260505165233 50 335 0.0 1.0 0.00 0.61 0.09 93 1007.9
20260505164230 50 1 1.0 2.0 0.00 0.61 0.09 93 1007.9
20260505163226 50 278 1.0 4.0 0.00 0.61 0.09 93 1008.0
20260505162223 50 303 1.0 6.0 0.00 0.61 0.09 93 1008.0
20260505161220 51 314 0.0 2.0 0.00 0.61 0.09 92 1008.1
20260505160217 51 295 0.0 3.0 0.00 0.61 0.09 92 1008.1
20260505153227 50 332 0.0 2.0 0.00 0.61 0.09 92 1008.2
20260505152223 51 344 1.0 6.0 0.00 0.61 0.09 92 1008.3
20260505151220 51 337 1.0 2.0 0.00 0.61 0.09 91 1008.5
20260505150218 51 332 0.0 2.0 0.00 0.61 0.09 91 1008.4
20260505140217 51 328 1.0 2.0 0.00 0.61 0.09 92 1008.7
20260505130218 50 351 1.0 3.0 0.00 0.61 0.09 92 1009.1
20260505124230 51 348 1.0 3.0 0.00 0.61 0.09 91 1009.2
20260505123232 51 336 0.0 4.0 0.00 0.61 0.09 91 1009.2
20260505122224 50 324 1.0 3.0 0.00 0.61 0.09 91 1009.3
20260505121221 50 335 1.0 3.0 0.00 0.61 0.09 92 1009.3
20260505120218 50 293 1.0 3.0 0.00 0.61 0.09 92 1009.3
20260505115235 49 323 1.0 3.0 0.00 0.61 0.09 93 1009.4
20260505114232 49 320 1.0 3.0 0.00 0.61 0.09 94 1009.5
20260505113228 49 330 1.0 3.0 0.00 0.61 0.09 95 1009.4
20260505112227 49 2 1.0 2.0 0.00 0.61 0.09 95 1009.5
20260505111222 49 338 1.0 4.0 0.00 0.61 0.09 95 1009.6
20260505110219 49 340 0.0 2.0 0.00 0.61 0.09 95 1009.7
20260505101223 49 329 1.0 3.0 0.00 0.61 0.09 95 1009.8
20260505100220 48 328 1.0 3.0 0.00 0.61 0.09 95 1009.9
20260505095217 49 306 1.0 3.0 0.00 0.61 0.09 95 1009.9
20260505094234 49 354 1.0 2.0 0.00 0.61 0.09 95 1009.9
20260505093230 48 301 0.0 1.0 0.00 0.61 0.09 96 1009.9
20260505092228 48 325 0.0 3.0 0.00 0.61 0.09 96 1010.0
20260505091225 49 341 1.0 4.0 0.00 0.61 0.09 96 1010.0
20260505090221 48 348 1.0 3.0 0.00 0.61 0.09 96 1009.9
20260505085219 48 345 1.0 6.0 0.00 0.61 0.09 96 1009.9
20260505084235 48 347 1.0 3.0 0.00 0.61 0.09 96 1010.0
20260505083231 48 329 1.0 3.0 0.00 0.61 0.09 96 1009.8
20260505082228 48 323 1.0 3.0 0.00 0.61 0.09 96 1009.8
20260505081225 48 321 0.0 1.0 0.00 0.61 0.09 96 1009.9
20260505080222 48 321 0.0 2.0 0.00 0.61 0.09 96 1010.0
20260505075226 49 317 0.0 2.0 0.00 0.61 0.09 97 1009.9
20260505074216 48 327 0.0 1.0 0.00 0.61 0.09 97 1009.9
20260505073233 49 323 0.0 3.0 0.00 0.61 0.09 97 1010.1
20260505072230 48 347 0.0 3.0 0.00 0.61 0.09 97 1009.9
20260505071227 48 349 1.0 2.0 0.00 0.61 0.09 97 1010.1
20260505070223 49 312 0.0 2.0 0.00 0.61 0.09 97 1010.1
20260505065219 49 318 0.0 1.0 0.00 0.61 0.09 97 1010.0
20260505064217 48 316 0.0 2.0 0.01 0.61 0.09 97 1010.1
20260505063233 48 313 0.0 2.0 0.01 0.61 0.09 97 1010.1
20260505062230 48 330 1.0 3.0 0.01 0.61 0.09 97 1010.1
20260505061227 48 321 0.0 2.0 0.02 0.61 0.09 97 1010.1
20260505060224 48 351 1.0 1.0 0.02 0.61 0.09 97 1010.1
20260505055220 48 306 0.0 1.0 0.03 0.61 0.09 97 1009.9
20260505054217 48 314 0.0 2.0 0.02 0.60 0.08 97 1009.9
20260505053234 49 348 1.0 4.0 0.02 0.60 0.08 97 1009.8
20260505052231 49 313 0.0 2.0 0.02 0.60 0.08 97 1009.7
20260505051228 49 345 0.0 2.0 0.01 0.59 0.07 97 1009.9
20260505050226 49 342 0.0 2.0 0.02 0.59 0.07 97 1009.9
20260505041230 50 332 0.0 2.0 0.01 0.58 0.06 97 1009.9
20260505040227 50 321 1.0 2.0 0.00 0.57 0.05 97 1009.9
20260505035224 51 325 0.0 3.0 0.00 0.57 0.05 97 1009.9
20260505034221 51 347 1.0 3.0 0.00 0.57 0.05 97 1009.9
20260505033217 52 334 0.0 1.0 0.00 0.57 0.05 97 1009.9
20260505032235 52 324 1.0 3.0 0.00 0.57 0.05 97 1009.9
20260505031231 52 348 0.0 1.0 0.00 0.57 0.05 97 1010.0
20260505030229 52 305 0.0 2.0 0.00 0.57 0.05 97 1009.9
20260505025225 52 315 0.0 2.0 0.00 0.57 0.05 97 1009.9
20260505024222 53 341 0.0 1.0 0.00 0.57 0.05 97 1010.0
20260505023219 53 329 0.0 2.0 0.00 0.57 0.05 97 1009.9
20260505022216 53 311 0.0 2.0 0.00 0.57 0.05 97 1010.0
20260505021233 53 328 1.0 4.0 0.00 0.57 0.05 97 1010.1
20260505020230 54 298 0.0 3.0 0.00 0.57 0.05 97 1010.0
20260505015227 54 353 0.0 1.0 0.00 0.57 0.05 97 1010.2
20260505014223 55 337 0.0 2.0 0.01 0.57 0.05 97 1010.0
20260505013221 55 337 0.0 2.0 0.01 0.57 0.05 97 1010.2
20260505012217 55 0.0 0.0 0.01 0.57 0.05 97 1010.3
20260505011234 56 321 0.0 2.0 0.01 0.57 0.05 97 1010.4
20260505010231 56 0.0 0.0 0.02 0.57 0.05 97 1010.3
20260505005228 56 0.0 0.0 0.02 0.57 0.05 97 1010.4
20260505004225 56 0.0 0.0 0.01 0.56 0.04 97 1010.5
20260505003222 56 0.0 0.0 0.02 0.56 0.04 97 1010.5
20260505002219 56 0.0 0.0 0.02 0.56 0.04 97 1010.6
20260505001216 56 0.0 0.0 0.02 0.56 0.04 97 1010.6
20260505000233 56 0.0 0.0 0.02 0.55 0.03 97 1010.7
20260504235229 57 0.0 0.0 0.02 0.55 0.03 97 1010.9
20260504234226 57 0.0 0.0 0.02 0.55 0.03 97 1010.8
20260504233223 57 0.0 0.0 0.02 0.54 0.02 97 1011.0
20260504232220 57 0.0 0.0 0.02 0.54 0.02 97 1011.2
20260504231217 57 0.0 0.0 0.02 0.54 0.02 97 1011.1
20260504230234 57 0.0 0.0 0.01 0.53 0.01 97 1011.2
20260504225231 56 0.0 0.0 0.01 0.53 0.01 97 1011.3
20260504224228 56 0.0 0.0 0.01 0.53 0.01 97 1011.3
20260504223225 56 0.0 0.0 0.00 0.52 0.00 97 1011.4